Flag for Switzerland Weather past 2 weeks in Stäfa, Zurich, Switzerland

Now
35 °F

Chilly.


Feels Like: 35 °F
Forecast: 34 / 55 °F
Wind: 1 mph from West

Location: Zurich Town / Ville.


UV Index: 3 (Moderate)

Visibility: N/A


Pressure: 30.01 "Hg

Humidity: 96%

Dew point: 34 °F

Location of StäfaLocation

Historic Weather in Stäfa

°F

Stäfa temperature yesterday

Maximum temperature yesterday: 58 °F (at 4:00 PM)
Minimum temperature yesterday: 35 °F (at 6:00 AM)
Average temperature yesterday: 44 °F

Past Weeks' High & Low Weather Summary

 TemperatureHumidityPressure
High67 °F (Apr 11, 5:00 PM)98% (Apr 6, 6:00 AM)30.34 "Hg (Apr 6, 6:00 AM)
Low35 °F (Apr 18, 9:00 PM)25% (Apr 17, 4:00 PM)29.67 "Hg (Apr 3, 11:00 PM)
Average51 °F63%30.07 "Hg
* Reported Apr 3 10:00 PM — Apr 18 10:00 PM, Stäfa, Weather by CustomWeather, © 2014

Note: Actual official high and low records may vary slightly from our data, if they occured in-between our weather recording intervals... More about our weather records

Advertising

Historic Weather Conditions — Data for Previous 24 hours

 ConditionsComfort  
Time TempWeatherWind HumidityBarometerVisibility
10:00 PM
Apr 18
35 °FChilly.1 mph96%30.01 "HgN/A
9:00 PM35 °FChilly.2 mph97%30.01 "HgN/A
8:00 PM36 °FLight rain. Overcast.2 mph96%29.99 "Hg2 mi
7:00 PM36 °FChilly.3 mph97%29.98 "HgN/A
6:00 PM35 °FChilly.5 mph95%29.97 "HgN/A
5:00 PM37 °FChilly.12 mph95%29.93 "HgN/A
4:00 PM46 °FCool.5 mph86%29.87 "HgN/A
3:00 PM47 °FCool.6 mph71%29.87 "HgN/A
2:00 PM49 °FOvercast.8 mph61%29.86 "Hg9 mi
1:00 PM48 °FCool.8 mph67%29.88 "HgN/A
12:00 PM47 °FCool.7 mph69%29.91 "HgN/A
11:00 AM48 °FCool.7 mph56%29.91 "HgN/A
10:00 AM48 °FCool.7 mph53%29.92 "HgN/A
9:00 AM48 °FCool.2 mph56%29.90 "HgN/A
8:00 AM45 °FOvercast.1 mph63%29.92 "Hg16 mi
7:00 AM45 °FQuite cool.2 mph63%29.93 "HgN/A
6:00 AM44 °FQuite cool.2 mph64%29.94 "HgN/A
5:00 AM45 °FCool.1 mph60%29.96 "HgN/A
4:00 AM44 °FQuite cool.1 mph60%29.97 "HgN/A
3:00 AM44 °FQuite cool.1 mph57%29.98 "HgN/A
2:00 AM44 °FQuite cool.1 mph64%30.00 "HgN/A
Weather by CustomWeather, © 2014

See weather overview